Flag for Canada Weather past 2 weeks in Victoria, British Columbia, Canada

Now
55 °F

Passing clouds.


Feels Like: 54 °F
Forecast: 43 / 61 °F
Wind: 6 mph from West

Location: Victoria Int. Airportb. C.

Current Time: Apr 19, 2015 at 11:05:17 AM

Latest Report: Apr 19, 2015 at 10:00 AM


Visibility: 30 mi

Pressure: 30.22 "Hg

Humidity: 59%

Dew point: 41 °F

Location of VictoriaLocation

Historic Weather in Victoria — Graph

°F

Victoria temperature yesterday

Maximum temperature yesterday: 61 °F (at 2:00 PM)
Minimum temperature yesterday: 43 °F (at 4:00 AM)
Average temperature yesterday: 52 °F

Past Weeks' High & Low Weather Summary

 TemperatureHumidityPressure
High63 °F (Apr 17, 3:00 PM)100% (Apr 5, 4:00 AM)30.53 "Hg (Apr 5, 4:00 AM)
Low36 °F (Apr 5, 6:00 AM)47% (Apr 9, 11:00 AM)29.68 "Hg (Apr 5, 10:00 PM)
Average47 °F75%30.07 "Hg
* Reported Apr 4 10:00 AM — Apr 19 10:00 AM, Victoria, Weather by CustomWeather, © 2015

Note: Actual official high and low records may vary slightly from our data, if they occured in-between our weather recording intervals... More about our weather records

Advertising

Victoria weather history for previous 24 hours

 ConditionsComfort  
Time TempWeatherWind HumidityBarometerVisibility
10:00 AM
Sun, Apr 19
55 °FPassing clouds.6 mph59%30.22 "Hg30 mi
9:00 AM52 °FPartly sunny.6 mph67%30.23 "Hg30 mi
8:00 AM48 °FPartly sunny.5 mph82%30.24 "Hg30 mi
7:00 AM45 °FPassing clouds.2 mph87%30.24 "Hg30 mi
6:00 AM41 °FPassing clouds.5 mph100%30.24 "Hg30 mi
5:00 AM41 °FPassing clouds.3 mph93%30.24 "Hg30 mi
4:00 AM41 °FPassing clouds.6 mph93%30.24 "Hg30 mi
3:00 AM45 °FPassing clouds.5 mph87%30.24 "Hg30 mi
2:00 AM41 °FPassing clouds.7 mph93%30.25 "Hg30 mi
1:00 AM45 °FClear.2 mph87%30.25 "Hg30 mi
12:00 AM45 °FPassing clouds.3 mph81%30.25 "Hg30 mi
11:00 PM
Sat, Apr 18
46 °FPassing clouds.No wind76%30.25 "Hg30 mi
10:00 PM48 °FPassing clouds.2 mph76%30.25 "Hg30 mi
9:00 PM50 °FScattered clouds.5 mph76%30.26 "Hg30 mi
8:00 PM54 °FPartly sunny.5 mph67%30.27 "Hg30 mi
7:00 PM57 °FPartly sunny.2 mph63%30.27 "Hg30 mi
6:00 PM61 °FPartly sunny.5 mph52%30.28 "Hg30 mi
5:00 PM61 °FPartly sunny.6 mph52%30.30 "Hg30 mi
4:00 PM61 °FPartly sunny.5 mph52%30.32 "Hg30 mi
3:00 PM61 °FPartly sunny.5 mph48%30.34 "Hg30 mi
2:00 PM61 °FPartly sunny.7 mph55%30.35 "Hg30 mi
1:00 PM59 °FPartly sunny.8 mph55%30.37 "Hg30 mi
12:00 PM59 °FPartly sunny.7 mph55%30.38 "Hg30 mi
11:00 AM57 °FPassing clouds.7 mph55%30.39 "Hg30 mi
Weather by CustomWeather, © 2015

See weather overviewHow to use our weather pages